Wind_Speed
16 18 20 22 23 24 25 26 26 26 25 23 22 21 20 19 16 15 14 15 17 18 21 22 23 22 19 18 19 22 26 28 30 31 30 28 25 24 24 24 23 22 22
18 22 25 26 25 25 24 25 25 26 25 23 21 20 19 19 17 14 13 14 15 16 17 19 21 21 20 18 17 19 24 29 31 32 32 31 28 27 25 25 25 24 24
20 23 25 26 24 21 20 20 20 22 22 21 20 20 19 20 20 18 16 16 15 16 16 16 18 20 21 22 22 20 22 28 34 36 35 33 30 28 26 27 26 25 24
19 21 21 22 19 17 18 20 19 19 19 20 20 20 20 21 21 22 21 20 19 18 18 19 20 20 21 23 24 25 24 28 34 38 39 36 33 32 31 30 28 26 25
20 20 22 20 17 16 18 20 20 20 20 20 20 20 21 22 23 24 25 25 23 22 21 21 21 22 23 23 24 25 25 28 33 38 41 39 37 35 34 32 29 27 27
21 20 20 19 17 17 18 19 19 19 20 19 18 19 20 22 23 25 26 26 26 24 23 23 22 22 23 23 23 24 24 27 33 40 43 41 38 36 35 34 30 28 29
18 18 18 19 19 19 20 20 21 21 20 20 20 19 19 22 23 24 25 26 26 25 24 24 24 24 24 24 24 24 22 22 28 35 40 41 40 39 39 37 34 32 32
17 18 19 20 20 20 20 20 21 22 23 23 22 21 22 21 22 22 22 23 24 25 25 25 25 26 26 26 25 24 22 22 24 31 36 39 38 37 39 39 36 32 32
18 19 20 21 21 20 19 19 21 23 22 22 22 22 22 21 21 22 23 23 24 25 25 26 26 26 27 28 27 25 23 22 22 26 31 32 31 30 30 31 33 33 31
17 19 21 21 20 19 19 21 22 22 21 20 21 22 22 21 22 23 23 24 25 25 25 25 26 27 27 27 27 26 25 23 22 22 24 24 23 23 24 26 30 32 34
18 19 20 19 19 20 20 20 20 20 19 19 20 21 22 23 25 26 27 28 28 28 27 26 26 26 27 27 26 26 26 25 25 24 24 24 24 24 24 25 27 28 30
17 17 17 17 18 19 18 17 17 17 17 18 20 21 24 26 29 31 33 34 34 34 33 30 27 26 27 26 24 25 25 25 27 27 28 28 28 29 30 30 30 30 31
17 16 16 17 18 18 17 16 16 17 18 19 21 23 25 27 29 31 32 33 34 35 35 34 31 27 26 26 24 24 25 25 26 27 28 28 28 29 30 31 32 32 32
17 17 17 18 18 18 17 16 17 18 18 19 20 22 24 25 27 29 30 30 30 30 31 32 31 28 24 24 24 23 24 24 24 24 25 25 25 25 25 27 28 28 28
15 16 16 17 17 16 15 15 15 16 17 18 19 20 22 23 23 23 22 21 21 22 24 26 26 25 23 23 23 22 21 21 20 19 19 19 19 20 22 23 25 26 27
14 14 14 15 15 15 14 13 14 15 15 15 16 17 18 18 18 16 11 6 7 12 15 18 18 18 19 20 20 20 19 17 16 16 17 18 19 20 22 24 26 27 29
16 16 16 16 15 14 13 13 14 14 13 14 14 15 15 15 16 14 12 8 3 5 8 10 12 14 17 19 19 18 17 16 16 17 19 20 22 23 25 26 28 29 30
18 18 18 18 17 15 14 14 14 15 15 14 15 15 16 16 16 16 15 12 7 4 5 8 10 12 15 16 16 15 16 16 16 17 17 19 21 23 24 25 26 28 29
18 20 20 20 19 18 17 16 16 16 16 16 16 17 17 18 18 18 17 13 10 6 4 6 8 10 11 11 12 12 13 14 15 15 17 19 21 23 24 25 25 26 28
18 19 20 20 21 21 20 19 18 17 17 16 17 17 19 20 21 22 21 17 12 7 3 2 3 4 5 6 7 9 11 13 15 17 19 20 22 23 24 25 26 27 28
18 18 19 20 20 21 21 20 20 19 19 19 18 19 20 21 23 24 24 21 16 11 9 8 6 5 3 2 2 4 7 9 12 15 17 19 21 23 25 26 28 29 30
17 17 17 17 17 18 19 19 20 20 20 20 20 21 21 22 24 26 27 26 22 18 17 15 14 11 9 7 4 4 6 8 11 13 16 19 22 24 25 26 27 27 28
16 16 16 15 15 14 15 16 17 18 18 19 20 20 21 22 23 25 26 27 26 24 21 19 17 15 13 12 11 10 9 10 13 16 19 21 23 24 24 24 25 25 25
14 14 14 14 14 14 14 14 15 16 16 17 18 19 19 20 22 22 23 24 24 23 22 20 19 17 16 15 14 14 14 15 17 19 21 22 23 23 23 23 23 24 25
12 13 13 13 14 14 14 14 14 14 15 15 16 16 18 19 19 20 20 20 21 20 19 18 17 16 16 16 17 17 18 19 21 22 23 23 23 23 23 22 22 23 23
10 11 11 12 13 14 15 14 14 13 13 12 13 13 15 16 16 17 17 18 19 19 18 17 16 15 16 16 18 19 19 21 22 24 25 25 24 23 22 22 22 22 22
Wind_Direction
277 280 282 281 281 284 286 284 281 279 278 278 281 281 278 273 268 263 254 241 237 241 243 243 244 244 241 243 248 247 238 232 231 237 239 237 235 238 240 240 239 237 235
280 281 283 286 287 289 289 290 287 282 276 272 274 277 276 271 266 262 255 246 244 247 246 243 241 241 238 238 243 245 238 230 229 233 236 237 235 236 238 240 239 239 239
281 286 290 291 290 289 294 296 294 288 278 269 269 273 273 269 266 263 258 253 250 250 249 246 245 244 242 242 246 251 247 237 231 230 231 234 233 233 235 242 243 242 241
289 295 299 300 294 291 297 299 294 288 278 269 270 274 275 272 268 264 260 257 255 254 253 253 253 252 250 250 251 252 254 243 233 228 227 228 230 234 236 241 244 244 242
304 301 301 307 305 301 300 300 295 284 278 273 270 272 275 275 271 266 263 261 260 259 257 256 256 257 255 256 254 253 252 244 233 225 224 227 230 233 235 239 243 241 242
303 303 307 313 312 309 305 302 297 293 286 279 275 273 273 273 272 268 266 265 264 262 260 258 256 257 256 256 255 254 255 247 238 228 227 227 227 228 232 236 239 240 243
301 304 308 307 306 307 305 303 303 302 298 292 288 285 282 275 271 269 265 264 264 263 262 260 257 255 255 254 254 255 257 249 238 229 224 224 226 229 231 234 238 242 246
298 301 305 307 307 306 303 302 303 302 298 293 288 284 282 279 271 265 263 261 262 262 262 261 259 256 253 252 253 254 253 247 240 232 228 228 232 235 234 233 235 241 246
303 307 309 309 308 306 304 303 304 303 298 292 288 284 281 275 269 265 262 261 262 263 263 262 261 258 254 251 250 250 249 246 243 239 232 231 234 234 235 235 236 239 241
309 311 312 311 310 309 308 308 308 306 300 293 289 285 280 274 268 264 262 262 261 260 260 261 261 260 258 256 253 250 248 245 242 238 235 234 234 234 236 237 239 240 241
311 313 314 316 316 316 314 312 311 309 303 297 292 288 284 279 273 269 265 262 260 259 259 259 260 261 259 257 257 255 253 248 243 237 236 239 242 243 244 243 241 242 244
308 312 316 320 321 319 316 314 314 315 312 306 300 295 290 286 281 277 271 266 262 259 257 256 257 258 257 255 254 252 250 250 248 244 242 242 244 245 247 248 248 247 248
307 309 314 317 317 316 312 311 314 317 316 312 308 304 300 296 291 286 279 271 264 258 254 251 251 253 254 251 249 247 246 247 246 245 244 245 246 247 249 251 251 252 254
313 313 314 317 319 318 315 312 314 316 317 317 315 313 310 306 302 296 285 274 264 255 248 244 243 245 247 245 243 242 242 242 243 244 242 241 242 244 246 247 248 249 251
322 320 321 324 327 327 324 322 322 322 320 320 321 321 320 318 317 310 295 276 258 246 237 233 233 238 240 237 236 237 235 235 237 235 234 236 241 244 248 249 249 251 254
346 346 345 345 344 343 340 337 335 332 331 332 334 335 335 334 335 341 340 307 240 221 219 219 224 231 229 226 225 222 219 223 227 232 239 247 254 258 260 259 258 259 260
11 12 9 7 5 2 358 354 352 354 356 356 358 1 1 1 7 18 29 42 90 176 197 209 218 218 212 212 212 213 218 229 241 249 254 257 261 264 265 265 264 263 263
25 26 25 25 25 23 20 17 16 19 21 21 21 22 24 25 27 32 37 47 65 112 162 176 185 186 191 202 213 222 231 241 251 257 262 265 268 271 272 272 271 270 269
34 35 36 35 34 33 32 31 29 29 30 30 27 26 27 29 30 30 30 30 33 48 95 143 161 175 191 208 222 233 242 249 257 263 268 272 276 279 280 279 277 276 275
36 36 37 37 37 38 40 41 41 41 39 36 32 31 32 34 33 30 26 24 25 33 55 106 142 174 200 222 239 251 259 263 267 272 277 282 285 286 285 284 282 282 281
35 34 34 35 35 37 41 44 47 48 47 44 41 40 39 38 36 33 31 33 40 57 79 94 105 112 126 171 240 266 276 283 288 292 295 295 294 292 290 288 287 286 285
32 30 29 32 34 36 40 43 46 47 48 47 46 44 42 41 40 38 39 44 56 71 82 85 86 86 84 77 57 10 339 327 320 315 310 306 302 299 296 293 291 291 291
28 27 26 29 32 36 40 44 45 46 46 46 46 45 44 44 44 45 47 51 59 68 75 77 75 72 67 58 46 31 14 357 343 332 324 318 313 308 303 299 297 296 295
24 25 26 28 32 37 41 44 44 45 45 44 44 43 44 44 45 46 48 51 56 61 64 66 65 63 58 51 41 31 20 8 356 346 338 330 325 319 313 308 304 300 298
21 24 28 31 33 36 39 40 41 41 41 40 39 39 41 43 44 44 46 48 50 53 55 55 55 53 48 41 34 27 19 10 2 355 348 342 336 331 326 321 316 312 309
19 24 33 37 37 34 33 33 34 34 33 32 32 34 37 40 41 40 41 43 44 46 47 46 44 41 38 33 28 22 16 10 6 2 359 354 349 344 340 335 329 325 322
Height
5806 5806 5805 5803 5801 5799 5796 5793 5791 5790 5788 5787 5785 5784 5783 5783 5784 5784 5785 5786 5786 5787 5788 5790 5791 5793 5795 5797 5800 5802 5804 5807 5810 5813 5816 5819 5821 5823 5825 5827 5829 5830 5832
5800 5799 5797 5795 5793 5790 5788 5786 5784 5783 5781 5780 5779 5778 5778 5778 5779 5780 5781 5783 5784 5784 5784 5785 5786 5788 5790 5792 5793 5795 5797 5799 5803 5806 5809 5812 5815 5817 5819 5822 5824 5826 5827
5793 5792 5790 5787 5785 5783 5782 5780 5778 5776 5774 5774 5774 5773 5773 5773 5773 5774 5776 5778 5779 5780 5781 5782 5783 5783 5785 5786 5787 5788 5789 5792 5795 5798 5802 5805 5808 5811 5813 5816 5818 5820 5822
5788 5786 5784 5782 5780 5778 5776 5775 5773 5771 5770 5769 5769 5768 5768 5768 5768 5769 5770 5772 5773 5774 5776 5777 5778 5779 5780 5780 5780 5781 5782 5784 5786 5790 5795 5799 5801 5804 5806 5809 5812 5814 5815
5782 5780 5777 5776 5775 5773 5771 5769 5767 5766 5765 5765 5764 5763 5762 5762 5762 5762 5763 5765 5766 5768 5769 5771 5772 5773 5774 5774 5774 5774 5775 5776 5778 5782 5787 5791 5794 5797 5800 5802 5805 5807 5808
5778 5776 5774 5772 5771 5769 5767 5765 5763 5761 5760 5759 5758 5757 5756 5756 5755 5755 5756 5757 5758 5760 5762 5763 5764 5765 5766 5767 5767 5768 5768 5768 5770 5774 5779 5783 5787 5790 5793 5795 5798 5800 5801
5774 5772 5771 5769 5768 5766 5763 5761 5759 5757 5755 5753 5751 5750 5750 5749 5749 5748 5749 5750 5751 5752 5754 5756 5757 5758 5759 5761 5761 5761 5761 5761 5762 5765 5770 5774 5779 5782 5785 5789 5791 5792 5794
5770 5769 5768 5766 5764 5761 5759 5756 5753 5751 5749 5746 5745 5744 5743 5742 5741 5741 5742 5743 5744 5745 5747 5748 5749 5751 5752 5754 5755 5756 5756 5756 5757 5759 5763 5767 5770 5773 5777 5780 5783 5785 5786
5767 5765 5763 5760 5758 5755 5752 5750 5747 5745 5742 5740 5738 5737 5736 5735 5735 5735 5735 5736 5737 5738 5740 5741 5742 5743 5744 5746 5747 5748 5750 5751 5751 5753 5755 5758 5761 5764 5767 5771 5774 5777 5779
5763 5760 5757 5755 5752 5749 5746 5744 5741 5738 5736 5734 5732 5731 5730 5729 5728 5728 5728 5729 5730 5731 5732 5733 5734 5735 5736 5738 5740 5741 5743 5745 5746 5747 5749 5752 5754 5757 5759 5762 5765 5767 5769
5759 5756 5753 5750 5747 5744 5741 5739 5736 5733 5731 5729 5727 5725 5724 5723 5722 5721 5721 5721 5722 5722 5724 5725 5726 5728 5729 5731 5733 5735 5737 5739 5742 5743 5744 5746 5748 5750 5752 5754 5756 5759 5760
5756 5753 5750 5747 5744 5741 5738 5735 5732 5729 5726 5724 5722 5720 5718 5716 5714 5712 5711 5711 5711 5712 5714 5716 5718 5720 5722 5724 5726 5728 5730 5732 5735 5737 5739 5740 5742 5744 5746 5747 5749 5750 5751
5753 5750 5747 5744 5741 5737 5734 5731 5728 5725 5723 5720 5717 5714 5711 5707 5704 5701 5698 5697 5698 5700 5702 5705 5708 5711 5714 5717 5719 5721 5723 5726 5728 5730 5732 5734 5735 5736 5738 5739 5740 5742 5742
5749 5746 5743 5740 5736 5733 5729 5727 5724 5721 5718 5715 5712 5708 5704 5700 5695 5690 5685 5684 5684 5686 5690 5694 5699 5703 5706 5709 5712 5715 5717 5719 5722 5724 5726 5727 5729 5730 5731 5731 5732 5733 5733
5746 5742 5739 5736 5732 5729 5726 5723 5720 5718 5715 5711 5708 5704 5699 5694 5688 5680 5674 5672 5673 5676 5680 5685 5691 5696 5699 5703 5706 5709 5711 5714 5717 5719 5721 5723 5724 5724 5725 5725 5725 5725 5725
5743 5740 5736 5733 5729 5726 5723 5720 5717 5714 5711 5708 5705 5701 5696 5690 5684 5677 5671 5668 5669 5672 5677 5681 5686 5690 5694 5698 5702 5705 5708 5711 5713 5715 5717 5718 5718 5718 5719 5718 5718 5718 5717
5742 5738 5735 5731 5728 5724 5721 5718 5715 5712 5709 5707 5703 5700 5695 5690 5685 5679 5675 5673 5673 5675 5678 5681 5684 5688 5691 5695 5699 5703 5706 5708 5710 5711 5712 5712 5712 5712 5712 5711 5710 5709 5709
5743 5739 5736 5732 5728 5724 5721 5718 5715 5713 5710 5707 5704 5701 5697 5692 5689 5685 5681 5679 5679 5679 5680 5682 5684 5687 5690 5694 5698 5701 5703 5705 5706 5706 5707 5707 5707 5706 5705 5704 5703 5701 5700
5745 5742 5738 5734 5730 5727 5723 5720 5717 5714 5712 5709 5706 5703 5700 5696 5692 5689 5686 5684 5683 5682 5683 5684 5686 5688 5691 5694 5697 5699 5701 5702 5703 5703 5702 5702 5701 5699 5698 5696 5694 5693 5691
5748 5745 5741 5738 5734 5730 5727 5724 5721 5718 5715 5712 5710 5707 5704 5700 5697 5693 5689 5686 5684 5683 5684 5685 5687 5689 5692 5694 5696 5697 5698 5698 5699 5698 5698 5696 5694 5692 5690 5688 5686 5683 5681
5750 5748 5745 5741 5738 5734 5731 5728 5725 5723 5720 5717 5714 5711 5708 5705 5702 5698 5694 5689 5685 5684 5685 5687 5689 5691 5693 5694 5695 5696 5696 5696 5696 5695 5693 5691 5689 5686 5684 5681 5678 5675 5672
5753 5751 5748 5745 5742 5739 5736 5733 5730 5728 5725 5722 5719 5716 5713 5710 5707 5703 5699 5694 5690 5689 5689 5691 5692 5694 5695 5696 5696 5697 5696 5695 5694 5692 5689 5686 5683 5680 5676 5673 5669 5666 5663
5755 5753 5751 5748 5745 5743 5740 5737 5735 5733 5730 5727 5725 5722 5719 5716 5713 5710 5706 5702 5699 5697 5697 5697 5698 5698 5699 5699 5698 5697 5696 5694 5692 5689 5685 5681 5677 5673 5669 5665 5662 5659 5656
5757 5755 5753 5751 5748 5746 5744 5741 5739 5737 5734 5732 5729 5727 5724 5722 5719 5716 5713 5710 5708 5706 5705 5704 5703 5703 5702 5701 5700 5698 5696 5693 5690 5686 5681 5677 5672 5667 5662 5659 5655 5652 5649
5759 5757 5755 5753 5751 5749 5747 5745 5742 5740 5738 5736 5733 5731 5729 5727 5724 5722 5719 5717 5715 5713 5711 5709 5708 5707 5705 5703 5701 5699 5696 5692 5688 5684 5679 5673 5668 5662 5658 5653 5650 5646 5642
5761 5759 5757 5755 5754 5752 5750 5748 5746 5743 5741 5739 5737 5735 5733 5731 5729 5726 5724 5722 5720 5718 5716 5713 5711 5709 5707 5705 5702 5699 5696 5692 5688 5682 5677 5671 5665 5660 5655 5650 5646 5641 5637